Location: Chihuahua
(28.6330°N, 106.0830°W)
Time: 09:49:25
(UTC-07:00)

Daily predictions for brighter satellites

Satellite Brightness Start Highest point End
(mag) Time Altitude Azimuth Time Altitude Azimuth Time Altitude Azimuth
Cosmos 372 Rocket 4.0 17:28:46 10° SSW 17:34:00 86° ESE 17:39:12 10° NNE
SMAP 3.0 17:33:19 10° SSE 17:37:56 70° ENE 17:42:33 10° N
RESURS DK-1 4.0 17:38:55 10° SE 17:41:32 16° ESE 17:44:10 10° ENE
Cosmos 1975 4.3 17:37:52 10° NNW 17:41:42 42° W 17:45:32 10° SSW
Meteor 2-4 Rocket 3.7 17:40:33 10° S 17:46:03 85° W 17:51:27 10° N
MTI 4.1 17:43:12 10° NNE 17:46:21 47° E 17:49:28 10° S
CSL-04 Debris 4.2 17:41:46 10° SSE 17:47:09 89° W 17:52:34 10° NNW
Cosmos 1025 Rocket 3.6 17:47:17 10° SSE 17:51:12 35° E 17:55:07 10° NNE
ALOS 3.3 17:48:32 10° SE 17:52:16 24° ENE 17:56:01 10° NNE
GOES 2 Rocket 3.1 17:49:45 10° W 17:54:00 88° S 17:58:50 11° E
SL-16 R/B 4.0 17:52:57 10° ESE 17:54:27 11° E 17:55:26 11° E
Cosmos 1536 Rocket 4.3 17:53:23 10° SSW 17:57:39 54° W 18:01:55 10° N
CZ-4 R/B 1.2 17:54:36 10° SSE 17:58:26 89° E 18:02:22 10° NNW
Cosmos 2322 Rocket 3.9 17:57:26 10° ESE 17:59:31 12° E 18:00:14 12° E
FENGYUN 3A 4.3 17:56:23 10° SE 18:01:06 32° ENE 18:05:49 10° N
METEOR-M 4.2 17:56:56 10° SSE 18:02:09 58° ENE 18:07:23 10° N
Hubble Space Telescope 1.2 17:58:22 10° W 18:02:27 60° SSW 18:06:32 10° ESE
Cosmos 2084 3.6 18:01:00 10° SW 18:05:18 71° WNW 18:09:21 10° NNE
Skynet4D Del rocket 3.8 18:01:00 10° W 18:07:19 76° S 18:11:57 16° E
Cosmos 1515 3.5 18:05:55 10° S 18:09:41 80° E 18:13:28 10° N
SL-8 R/B 4.0 18:05:26 10° SSW 18:10:08 54° SE 18:13:14 20° ENE
Cosmos 158 Rocket 3.8 18:05:28 10° NNW 18:10:29 89° WSW 18:15:23 10° SSE
ATLAS 3B R/B 2.5 18:05:28 10° NNW 18:12:03 77° ENE 18:18:31 10° SSE
EO 1 Del DPAF 3.2 18:10:18 10° NNE 18:14:07 89° WNW 18:17:55 10° SSW
Cosmos 1697 Rocket 3.2 18:09:55 10° SSW 18:15:28 61° WNW 18:21:04 10° N
USA 215 3.2 18:09:01 10° SE 18:15:31 74° NE 18:22:02 10° NW
SKYMED 2 4.0 18:13:33 10° N 18:17:51 65° WNW 18:22:08 10° SSW
Okean 2 3.3 18:14:58 10° S 18:19:05 86° E 18:23:10 10° N
Meteor 1-15 Rocket 4.3 18:14:50 10° N 18:20:44 65° E 18:26:31 10° SSE
NOSS 3-4 (A) 4.3 18:20:39 10° SW 18:26:37 49° WNW 18:32:43 10° NNE
NOSS 3-4 (C) 4.2 18:20:44 10° SW 18:26:42 49° WNW 18:32:50 10° NNE
ERS-2 2.0 18:24:11 10° SSE 18:27:48 71° ENE 18:31:28 10° N
DMSP B5D1-3 4.4 18:22:45 10° NNE 18:27:53 84° E 18:32:59 10° SSW
ISS -3.8 18:26:25 10° NW 18:29:41 80° SW 18:31:44 21° SE
Cosmos 2082 3.9 18:29:09 10° NNW 18:34:45 73° WSW 18:40:21 10° S
NOSS 2-2 (D) 3.2 18:31:10 10° SSW 18:35:04 89° ESE 18:36:41 34° NNE
SPOT 3 Rocket 3.4 18:31:35 10° SSE 18:36:45 77° ENE 18:41:55 10° N
ASC 2 Rocket 4.4 18:36:12 10° SW 18:39:36 26° SSE 18:40:48 23° SE
YAOGAN 1 4.1 18:39:03 10° SSW 18:43:02 37° W 18:47:02 10° NNW
Cosmos 1892 Rocket 3.6 18:38:48 10° S 18:43:10 56° E 18:44:08 45° NE
Cosmos 2227 Rocket 3.5 18:41:04 10° NW 18:46:21 42° WSW 18:51:36 10° S
NOSS 2-2 (E) 4.2 18:47:10 10° SW 18:50:52 45° WNW 18:52:27 29° N
Delta 2 Rocket 3.8 18:45:41 10° WNW 18:51:12 85° SSW 18:52:51 44° ESE
CENTAUR R/B 3.9 18:45:45 10° N 18:51:51 29° NE 18:51:51 29° NE
Thor Agena Rocket 3.4 18:52:57 35° NNE 18:55:11 73° ESE 19:00:27 10° S
Cosmos 1980 Rocket 3.1 18:51:08 10° SW 18:56:32 46° WNW 19:01:24 13° N
Cosmos 1066 Rocket 4.2 18:51:53 10° S 18:57:29 81° W 19:01:39 18° N
NOSS 2-2 (C) 4.2 18:53:52 10° SW 18:57:35 45° WNW 18:58:37 36° NNW
S3M 3.8 18:51:40 10° S 18:57:46 75° E 19:01:51 22° NNE
Intelsat 5-3 Rocket 3.2 18:54:44 10° WSW 18:59:28 36° S 18:59:30 36° S
Cosmos 494 Rocket 3.8 18:57:05 10° N 19:02:20 68° ENE 19:07:31 10° SSE
Cosmos 1184 Rocket 4.2 19:01:07 10° SSW 19:04:09 36° W 19:04:15 36° WNW
Shenzhou-11 Module 4.0 19:01:11 10° WSW 19:02:47 28° WSW 19:02:47 28° WSW
SWIFT 4.0 19:04:16 10° SW 19:07:35 25° S 19:07:35 25° S
Tiangong 2 4.0 19:06:04 10° SSW 19:06:28 12° SSW 19:06:28 12° SSW
Lacrosse 5 rocket 1.9 19:06:01 10° SSW 19:09:08 52° SSW 19:09:08 52° SSW
Cosmos 2297 Rocket 4.2 19:08:05 10° NW 19:12:48 28° WSW 19:17:31 10° SSW
Atlas Centaur 2 2.5 19:11:19 10° W 19:15:54 39° SSW 19:16:05 39° SSW
RESURS DK-1 4.2 19:15:51 10° WSW 19:19:19 26° WNW 19:20:17 23° NW
BREEZE-M R/B 3.5 19:28:53 10° SW 19:31:29 56° SW 19:31:29 56° SW
SL-16 R/B 2.5 19:32:16 10° SSW 19:37:22 63° W 19:37:22 63° W
Cosmos 2322 Rocket 2.7 19:37:24 10° SSW 19:42:07 55° WSW 19:42:07 55° WSW
Hubble Space Telescope 3.3 19:40:09 10° WSW 19:41:56 18° SW 19:41:56 18° SW
Cosmos 2344 3.7 19:41:50 10° SW 19:49:34 70° WNW 19:50:38 62° NNW
